Regional Weather Roundup
Issued by NWS Mt. Holly, NJ

Home | Current Version | Previous Version | Text Only | Print | Product List | Glossary On
Versions: 1 2 3 4 5 6 7 8 9 10 11 12 13 14 15 16 17 18 19 20 21 22 23 24 25 26 27 28 29 30 31 32 33 34 35 36 37 38 39 40 41 42 43 44 45 46 47 48 49 50
000
ASUS41 KPHI 281312
RWRPHI

REGIONAL WEATHER ROUNDUP
NATIONAL WEATHER SERVICE MOUNT HOLLY NJ
900 AM EDT FRI AUG 28 2015

NOTE:  "FAIR" INDICATES FEW OR NO CLOUDS BELOW 12,000 FEET WITH NO
SIGNIFICANT WEATHER AND/OR OBSTRUCTIONS TO VISIBILITY.

 * = STATION DOES NOT REPORT PRECIPITATION (E.G. RAIN, SNOW, ETC.)
        OR FOG.

NJZ015>026-281400-
SOUTHERN NEW JERSEY

CITY           SKY/WX    TMP DP  RH WIND       PRES   REMARKS
POMONA         SUNNY     70  56  61 N5        30.18R
MILLVILLE      SUNNY     70  56  61 N5        30.19R
WRIGHTSTOWN    SUNNY     68  57  68 N5        30.16S
MOUNT HOLLY    SUNNY     68  57  68 N6        30.19R
TRENTON        SUNNY     68  55  63 N6        30.19R

$$
NJZ001>014-281400-
NORTHERN NEW JERSEY

CITY           SKY/WX    TMP DP  RH WIND       PRES   REMARKS
SUSSEX         SUNNY     62  56  80 CALM      30.21R
ANDOVER*         N/A     62  56  80 E3        30.21R
MORRISTOWN     MOSUNNY   70  59  68 N6        30.19S
NEWARK         MOSUNNY   72  52  49 N5        30.18R
TETERBORO      SUNNY     69  53  56 VRB3      30.17S
CALDWELL       SUNNY     66  54  65 CALM      30.19S
SOMERVILLE     SUNNY     66  55  67 N3        30.18R
ALLAIRE*       SUNNY     68  54  60 NW7       30.18R
TOMS RIVER*    SUNNY     66  55  68 N6        30.18S

$$
PAZ043-044-047-054-055-060>062-066>071-281400-
EASTERN PENNSYLVANIA

CITY           SKY/WX    TMP DP  RH WIND       PRES   REMARKS
PHILADELPHIA   MOSUNNY   73  53  49 VRB6      30.19S
NORTH PHILA    SUNNY     72  52  49 N6        30.21R
BLUE BELL      SUNNY     68  59  73 N5        30.20R
DOYLESTOWN     MOSUNNY   66  56  70 N5        30.20R
QUAKERTOWN*    SUNNY     64  57  77 CALM      30.22R
POTTSTOWN      MOSUNNY   64  57  78 CALM      30.22R
LANCASTER      SUNNY     65  59  81 W3        30.22R
COATESVILLE    SUNNY     66  57  72 N3        30.22R
READING        MOSUNNY   67  56  67 CALM      30.20S
ALLENTOWN      SUNNY     64  56  75 CALM      30.21R
MOUNT POCONO   SUNNY     60  52  74 NW5       30.23R
HAZLETON       SUNNY     63  54  72 N3        30.26R
WILKES BARRE   SUNNY     62  53  72 CALM      30.23R

$$
DEZALL-MDZ008-012-015-019-020-281400-
DELAWARE AND EASTERN MARYLAND

CITY           SKY/WX    TMP DP  RH WIND       PRES   REMARKS
WILMINGTON     SUNNY     69  57  65 CALM      30.20R
DOVER          SUNNY     70  62  77 N8        30.18R
GEORGETOWN     SUNNY     72  59  63 N7        30.19R
EASTON         SUNNY     72  63  73 NE7       30.23R
ABERDEEN       SUNNY     72  63  73 CALM      30.18
PATUXENT       MOSUNNY   73  61  65 VRB6      30.19R
OCEAN CITY     SUNNY     74  60  61 N8        30.17R
WALLOPS ISLAND MOSUNNY   72  61  68 N8        30.18R
CAMBRIDGE      SUNNY     72  61  68 NE3       30.19R
SALISBURY      SUNNY     70  62  76 NE7       30.18R

$$
PAZ001-021-NYZ056-072-MDZ011-DCZ001-281400-
OTHER NEARBY LOCATIONS

CITY           SKY/WX    TMP DP  RH WIND       PRES   REMARKS
HARRISBURG     MOSUNNY   65  59  81 W5        30.21R
STATE COLLEGE  SUNNY     59  55  88 CALM      30.25S
WILLIAMSPORT   MOSUNNY   63  57  81 SW5       30.23R
BINGHAMTON     PTSUNNY   58  54  86 CALM      30.23S
NEW YORK CITY  SUNNY     68  53  58 CALM      30.21R
BALTIMORE      MOSUNNY   70  57  63 NE5       30.20R
WASHINGTON DC  MOSUNNY   70  59  68 CALM      30.21R

$$


USA.gov is the U.S. government's official web portal to all federal, state and local government web resources and services.